Torna al catalogo

SL-12 R/B(2)

AttivoGEO
NORAD 28634·ROCKET BODY·🇷🇺 Russia

Lanciato Mar 29, 2005 da Baikonur Cosmodrome

Loading…

TLE

AggiornatoSource: Space-Track

Epoca: Sep 14, 2026, 10:35 UTC

1 28634U 05010F   26257.44157124  .00000098  00000-0  00000-0 0  9996
2 28634  13.2183  17.7289 0022254 268.5470 272.5000  1.00289495 78597

Traccia SL-12 R/B(2) in tempo reale con AllMySat

Download on the App Store